Theta_e
327 328 329 328 328 328 328 328 329 329 328 329 330 330 334 337 339 344 345 345 346 347 344 344 342 339 338 338 339 340 339 339 337 336 334 334 336 336 336 330 325 323 321 320
327 328 328 327 329 328 328 328 329 329 330 330 332 331 335 338 340 342 344 345 346 347 346 344 342 340 339 339 339 339 339 339 339 337 337 338 336 334 330 325 325 324 323 322
327 328 326 328 329 329 329 330 330 330 330 330 330 332 333 335 340 341 342 342 343 343 343 344 344 342 341 340 339 339 339 339 339 338 338 336 335 330 327 326 323 322 323 321
328 327 327 329 328 329 329 329 329 329 330 330 329 331 334 334 335 335 337 336 335 334 337 340 341 342 342 341 339 338 339 339 339 339 336 336 333 329 327 325 322 323 321 320
329 328 329 329 329 329 331 329 328 328 329 331 330 330 337 334 335 333 333 332 332 332 334 336 338 339 339 338 338 338 340 340 338 336 335 332 329 326 323 321 322 320 318 317
329 327 329 329 329 329 328 330 328 329 329 332 329 329 334 334 335 334 332 331 332 332 333 333 338 339 339 338 338 338 340 340 338 335 332 330 328 324 322 322 320 317 316 314
329 329 328 329 330 331 330 330 329 328 327 328 328 330 332 330 332 331 330 331 331 331 332 332 332 332 336 336 337 337 338 338 336 330 328 326 324 324 322 320 318 317 314 312
329 331 330 329 331 331 331 332 330 330 328 326 328 330 332 328 329 330 330 330 330 333 331 331 332 333 333 336 337 336 335 334 330 327 325 324 324 321 319 318 318 316 314 312
329 329 330 329 330 331 333 332 331 334 332 331 329 330 329 328 328 329 328 329 330 333 332 333 332 335 335 334 334 334 332 330 327 324 324 323 322 321 319 318 317 314 312 312
332 331 331 329 330 331 333 331 333 332 332 332 330 329 329 328 328 328 329 329 330 333 332 332 332 334 335 332 332 330 327 325 324 323 322 321 320 319 318 317 315 313 312 312
335 338 334 332 333 333 332 333 333 333 333 331 331 330 327 329 329 330 331 331 330 330 330 330 330 332 332 329 325 325 325 323 322 322 321 320 318 318 317 315 313 312 312 312
335 337 334 334 331 330 330 332 332 334 332 330 332 330 328 328 329 331 331 330 330 330 329 327 327 328 327 327 325 324 324 322 320 320 320 317 319 317 316 313 312 312 312 312
335 338 336 335 333 332 333 331 332 333 333 332 333 330 328 329 330 331 330 330 329 328 327 327 327 325 325 325 325 323 322 321 320 320 318 318 317 316 313 312 312 312 312 312
334 339 335 333 335 333 334 331 330 331 334 331 330 331 329 330 330 330 331 329 328 327 327 327 327 325 325 325 324 323 322 321 319 318 318 318 317 313 312 312 312 312 311 309
343 337 334 332 331 330 331 331 329 330 330 331 330 331 331 331 330 330 329 328 328 327 326 326 326 326 325 325 325 324 322 318 318 318 318 316 313 312 312 311 312 310 307 307
337 339 336 335 332 332 331 330 330 329 329 330 329 330 330 330 329 329 328 328 328 328 327 327 327 327 326 325 324 322 320 319 319 318 316 313 311 311 311 312 310 307 306 308
338 339 337 336 333 332 332 330 329 328 329 330 330 331 331 331 330 330 330 328 328 328 328 328 327 325 325 324 322 321 320 319 318 316 313 311 311 311 311 308 307 308 308 310
340 339 335 333 335 333 331 330 330 332 331 330 330 332 331 330 330 330 330 331 330 330 328 327 325 324 325 323 322 320 319 317 316 314 312 312 312 311 308 308 308 307 306 307
337 339 336 333 331 330 329 332 333 332 332 330 332 332 330 329 330 332 328 327 327 327 325 323 322 322 324 323 320 319 317 316 314 312 312 312 310 307 308 307 307 305 306 306
337 337 334 333 334 334 331 333 332 332 332 332 332 333 332 331 332 333 328 326 325 323 322 321 321 321 324 321 319 318 317 315 312 312 312 311 309 309 307 308 308 307 307 308
337 337 334 332 334 331 333 332 330 334 335 332 332 334 333 333 332 328 326 325 323 322 320 318 319 322 322 320 318 318 316 313 312 312 312 310 309 308 309 309 309 307 308 310
332 333 331 331 330 327 331 331 332 337 334 333 332 332 332 329 326 326 325 324 322 321 319 317 319 323 320 318 318 317 314 312 312 312 311 309 309 308 309 309 307 308 309 310
329 327 329 327 324 335 333 336 333 331 333 332 331 329 327 326 326 325 324 324 323 321 318 318 320 323 319 317 317 316 312 312 313 312 310 309 308 309 308 309 309 307 310 310
330 331 326 330 324 331 333 333 332 331 331 330 329 327 325 325 324 324 324 324 322 319 317 318 321 323 319 316 315 313 311 313 313 311 310 308 309 309 309 307 309 310 310 310
329 332 327 328 326 328 330 332 332 332 330 329 326 325 325 324 324 323 323 323 320 318 318 320 322 321 318 316 314 311 312 313 313 311 309 309 308 309 309 308 307 308 306 307
328 326 328 323 324 326 325 331 331 331 330 328 325 325 324 324 324 323 322 320 319 318 319 321 321 319 317 316 313 311 313 313 312 311 309 307 308 309 308 309 309 306 306 306
Wind_Speed
5 10 3 7 3 5 3 3 2 4 3 4 3 6 5 6 3 3 5 6 6 7 8 9 9 5 4 4 5 7 7 7 7 7 8 9 9 9 9 8 8 9 11 12
8 9 5 3 5 3 1 3 5 2 3 8 3 6 3 6 4 1 1 4 4 7 7 10 11 8 5 4 4 6 8 9 9 9 8 7 8 10 9 8 8 10 11 13
6 10 4 6 7 3 4 9 8 9 2 2 6 10 1 4 4 4 3 2 3 4 6 7 9 11 10 8 6 6 6 8 9 8 8 7 8 7 9 9 13 11 14 14
2 3 7 7 5 5 2 6 7 8 9 5 2 3 7 3 6 6 9 8 7 6 5 2 3 4 7 8 5 4 4 6 7 6 6 7 9 10 11 12 14 15 15 15
5 9 9 4 8 4 7 5 6 5 4 8 9 8 8 2 5 6 6 6 5 5 2 1 1 0 1 2 3 2 3 5 5 4 4 7 8 12 13 14 15 18 16 18
9 3 3 9 5 3 3 5 3 4 3 5 7 7 10 4 2 4 4 7 5 5 2 1 1 1 1 1 1 2 2 2 3 4 4 5 7 10 14 16 18 19 20 20
9 6 8 2 5 7 4 10 2 3 3 4 6 7 8 4 1 6 6 7 7 4 4 3 2 2 1 1 1 1 0 2 3 3 4 5 7 9 13 15 17 19 22 21
9 9 7 1 5 6 5 8 7 8 7 9 4 4 6 3 4 7 10 10 9 3 4 2 0 1 2 1 0 1 2 3 4 5 4 5 7 12 14 15 18 19 21 19
6 3 6 2 2 4 4 3 3 5 5 6 4 2 11 1 6 9 11 11 9 5 4 3 2 2 3 2 2 4 4 4 5 4 5 6 8 11 14 15 17 19 19 19
2 2 3 6 5 7 5 4 4 3 6 9 8 5 4 11 9 10 9 9 7 8 4 3 3 3 4 3 3 4 5 6 4 4 6 6 8 13 15 16 19 18 17 18
3 4 7 6 5 3 5 5 1 4 3 8 7 10 10 9 12 13 13 13 5 4 3 3 2 3 5 4 7 7 8 5 5 6 8 9 11 12 15 18 18 16 16 17
3 3 4 2 4 1 2 3 2 5 8 4 6 7 4 11 13 11 12 7 3 4 3 3 4 3 4 6 8 8 7 7 6 7 5 6 10 14 17 17 16 15 16 17
5 3 4 7 7 5 4 3 1 0 4 9 7 7 14 11 9 8 7 7 3 3 3 4 5 4 7 8 9 10 9 9 7 7 7 9 13 16 17 15 15 15 16 19
1 1 5 7 8 5 4 6 3 4 5 9 12 13 11 9 9 8 8 6 6 6 7 8 6 7 12 9 12 13 12 9 6 4 7 12 15 17 15 14 14 15 18 16
2 2 2 3 4 1 1 3 4 7 9 8 12 13 9 9 8 7 6 5 5 7 9 9 9 11 16 18 18 15 10 5 5 7 12 14 16 15 14 14 14 16 17 17
0 2 3 4 2 2 5 3 5 5 8 8 12 14 7 6 6 8 8 8 9 11 10 10 10 14 17 17 16 13 5 4 5 10 14 16 15 15 14 13 16 15 18 13
2 5 4 4 1 4 8 4 6 7 8 8 12 13 9 5 7 7 7 8 9 9 10 11 12 15 16 14 11 8 3 3 7 12 15 14 14 15 15 18 17 17 16 12
5 4 2 4 3 10 5 2 4 8 12 11 9 7 4 3 5 8 11 11 11 11 11 13 16 18 16 13 8 5 4 5 10 12 13 14 15 16 16 16 16 15 16 13
1 3 2 6 8 6 11 8 4 8 11 7 7 4 1 2 5 8 10 10 10 10 13 16 20 18 14 11 6 4 5 8 11 12 13 14 14 15 16 15 14 16 13 12
3 2 5 4 9 12 9 5 1 2 10 5 1 1 3 6 8 8 10 9 11 14 17 19 20 17 13 7 4 4 7 10 11 12 12 11 13 14 13 13 13 13 11 8
5 4 9 9 8 10 6 2 2 8 5 4 3 3 3 4 6 4 5 8 11 13 18 20 19 15 9 4 3 6 9 10 10 10 10 11 13 11 13 12 11 11 8 10
7 5 6 3 9 12 4 3 5 6 3 3 3 4 5 6 4 3 6 8 11 16 21 20 18 14 7 3 4 7 9 8 9 9 8 10 11 11 13 12 11 10 8 11
4 3 5 3 6 2 1 5 3 1 2 1 2 5 5 3 2 5 6 8 13 18 20 19 18 10 4 3 6 7 7 8 9 7 7 7 8 10 10 9 9 9 7 11
5 2 4 2 5 4 6 6 7 3 1 4 5 4 2 2 4 5 7 10 14 19 18 19 16 8 4 4 6 7 6 7 7 6 6 6 7 8 10 10 8 8 8 7
4 7 6 9 11 7 8 5 3 5 5 6 5 4 3 2 3 7 9 11 15 17 18 17 12 6 5 3 5 6 5 6 5 5 6 5 5 6 5 9 10 8 8 6
6 9 7 9 9 5 4 2 6 8 8 6 6 5 2 3 6 10 11 12 14 15 16 15 7 4 3 3 5 5 5 6 4 4 6 7 5 5 6 4 7 11 10 10
Wind_Direction
178 242 292 33 32 31 46 29 28 102 77 264 308 285 330 347 287 190 213 206 199 210 199 196 205 189 204 213 214 217 223 220 221 238 255 261 276 279 292 283 280 286 296 301
204 233 88 124 119 144 305 306 39 165 41 281 291 275 324 20 42 328 208 177 192 200 202 216 215 218 240 255 238 229 235 232 232 248 267 282 289 300 294 289 286 288 289 294
294 79 124 172 170 191 49 351 342 328 335 214 288 236 179 58 91 131 178 179 182 200 221 216 219 221 235 243 248 238 238 236 241 253 264 282 296 280 271 278 298 300 298 303
39 102 177 188 105 315 329 4 314 300 275 336 345 347 126 61 106 109 135 142 152 176 187 179 233 238 232 248 241 255 240 230 234 237 253 274 293 298 309 301 311 313 312 312
91 143 168 173 56 343 47 353 341 308 258 224 53 276 106 163 156 131 139 155 179 190 106 210 179 294 284 228 237 214 208 203 206 230 268 281 294 307 313 313 312 312 311 314
107 98 336 87 96 53 132 272 229 217 218 215 36 312 94 81 348 162 186 212 214 221 179 241 9 298 274 268 256 188 193 209 235 258 271 285 300 317 320 322 318 319 317 316
157 126 117 171 172 156 307 344 300 293 333 5 20 269 48 23 225 284 273 237 229 186 233 212 205 240 263 273 314 349 321 278 261 259 271 296 318 319 313 319 320 321 318 318
190 171 181 96 340 13 40 335 16 337 349 340 115 11 76 28 293 276 268 268 275 235 258 212 184 261 274 195 176 259 271 257 247 265 303 317 316 318 318 323 319 315 315 314
210 147 120 72 132 310 101 19 12 309 190 271 35 49 230 225 283 256 261 261 254 245 247 213 177 237 257 262 294 291 267 256 261 292 308 312 322 326 324 318 313 312 310 312
155 224 211 141 158 72 340 106 303 295 336 326 344 302 312 345 335 330 283 274 264 246 236 196 219 237 251 255 265 259 259 260 266 282 295 321 333 317 317 315 314 312 311 308
195 270 139 191 218 347 173 185 43 278 331 322 318 327 36 356 338 324 319 328 295 242 265 218 250 238 239 255 270 253 255 257 271 296 324 324 325 319 318 317 313 308 309 311
150 260 238 77 88 353 318 14 329 332 340 324 282 305 46 345 329 332 331 336 62 6 12 323 288 260 251 283 286 279 277 281 283 285 255 304 317 319 318 317 312 309 309 310
178 199 202 174 176 183 237 142 105 346 273 299 310 295 6 350 357 19 6 24 46 339 301 311 302 262 314 317 304 292 283 279 261 233 288 316 323 321 322 318 315 313 313 319
275 168 270 290 38 58 178 195 223 272 289 327 307 342 335 10 358 17 12 358 341 358 6 343 311 306 341 335 309 304 288 285 288 311 313 329 329 328 324 322 321 324 329 321
272 200 200 92 95 101 308 272 241 275 317 304 328 318 343 3 352 6 352 5 354 5 4 360 342 337 325 327 327 316 304 311 304 318 337 337 333 333 329 330 337 337 333 331
21 165 178 162 146 262 281 290 280 276 311 300 313 304 36 7 2 31 30 11 4 11 10 6 352 348 347 349 342 339 329 308 324 341 343 340 344 339 341 348 339 332 331 326
178 151 210 268 144 268 261 291 296 302 293 325 310 345 337 351 39 27 13 11 9 7 5 1 357 350 354 350 351 359 6 5 351 350 348 351 349 347 354 340 338 329 325 327
155 169 243 302 207 262 50 72 281 291 295 303 293 291 340 32 73 48 33 22 22 11 3 359 352 345 346 344 357 24 32 6 360 357 359 359 357 355 347 345 353 350 352 353
308 236 209 273 275 308 276 184 228 273 290 318 305 311 304 334 204 63 49 32 25 14 4 352 345 344 339 348 360 18 17 5 3 9 9 8 2 357 355 359 355 358 1 7
129 240 268 269 282 285 329 60 30 259 279 70 330 306 342 319 284 65 35 26 18 9 356 347 338 344 344 350 5 21 10 13 14 17 12 12 8 5 5 7 6 10 45 66
208 244 266 285 287 294 32 41 163 260 332 67 46 40 26 357 33 46 23 18 11 357 351 348 349 350 345 354 22 24 20 22 20 18 20 18 13 12 17 13 23 48 38 54
260 261 264 306 284 284 57 143 265 20 47 70 67 60 79 84 72 30 12 6 358 353 356 355 350 351 357 20 20 26 29 19 22 21 25 23 22 31 33 25 61 46 44 64
245 291 320 254 310 52 7 275 19 314 359 93 125 105 95 88 23 9 354 357 351 355 353 351 346 351 17 50 28 28 23 21 19 33 35 28 31 37 30 32 40 49 59 76
175 179 250 272 268 280 282 245 232 204 237 136 124 114 120 49 5 343 352 353 348 354 352 347 348 7 69 72 43 35 24 20 25 45 31 27 33 40 35 39 32 35 39 76
7 159 254 259 266 259 245 238 218 179 168 152 131 128 109 15 349 344 347 351 346 349 352 352 359 32 91 75 44 31 25 18 28 37 33 27 38 49 27 55 45 44 41 41
191 254 238 276 325 263 314 139 171 172 173 153 147 145 103 344 352 345 345 341 344 341 352 352 14 78 99 56 44 36 27 19 15 27 34 21 25 38 35 31 82 58 62 60